Showing default

RASSVET-3 2, 68361

Orbit data source: Space-Track

RASSVET-3 2, 68361 is a payload satellite owned by Byuro 1440 (CIS) in LEO that was launched on Mon, 23 Mar 2026 UTC via a SOYUZ-2-1B launch vehicle from the Plesetsk Missile And Space Complex (PKMTR). Payload-class satellites include a variety of spacecraft equipped with specific instruments for various scientific and technological missions. These include communications satellites like Starlink; space stations such as the ISS; scientific satellites like the Hubble; Earth observation satellites from companies like Planet Labs, Umbra, and HawkEye 360; GPS; miniature CubeSats for education and research; and military/defense satellites.

Loading next visibility...
Identifier
68361, 2026-061B
Orbit
LEO
Country
Flag of CISCIS
Related business
Manufacturer
Byuro 1440
Mission
Operational spacecraft
Bus & Motor
RASSVET-2, Unknown motor
Mass
~370 kg wet, ~370 kg dry
Launch date (UTC)
2026-03-23 (3 months ago)
Launch vehicle
SOYUZ-2-1B
Launch site
Plesetsk Missile And Space Complex (PKMTR)
Object type
Payload
Rocket body
Debris
Shape & HBR
Unknown shape, 2.1 m
Radar Cross Section
Large (>1 m²)

Expand to show TLE details & history
Last TLE update: 7 hours ago

TLE from 7 hours ago
0 RASSVET-3 2
1 68361U 26061B   26169.89789087  .00018743  00000-0  26159-3 0  9998
2 68361  82.2897  10.3690 0001605 268.1110  91.9961 15.56737351 13824
Epoch: 2026-06-18T21:32Z
TLE epoch observation values (Epoch: 2026-06-18T21:32:57.771Z)
Latitude
0.00007°
Longitude
139.99368°
Altitude
400.276 km
Speed
7.67 km/s
True Right ascension
00h 41m 28s
True Declination
0° 00' 00"
Sunlit
Object was in daylight at epoch
Visualization orbit readout
Latitude
Unknown
Longitude
Unknown
Altitude
Unknown
Speed
Unknown
Apparent Right ascension
Unknown
Apparent Declination
Unknown
Sunlit
N/A
Visualization observer readout
Local Sidereal Time
15:07:12
Azimuth
Unknown
Elevation
Unknown
Doppler factor
Unknown
Orbital elements
Apogee altitude
395.125 km
Perigee altitude
392.951 km
Semi-major axis
6,772.175 km
Eccentricity
0.00016
Inclination
82.2897°
RAAN
10.369°
Arg. of periapsis
268.111°
True anomaly
92.01448°
Mean anomaly
91.9961°
Eccentric anomaly
92.00529°
Mean motion
3.89449 °/min
Orbital period
92.44 mins
BSTAR
0.00026159
Loading maneuver chart data...
Computing Atmospheric mass density...
Loading historical data...
Loading historical data...
Loading historical data...
Loading historical data...
Loading historical data...
Loading historical data...
Loading historical data...

Documentation

Showing up to 5 results
|